Weather History for KPRN - November, 2014

Change the Weather History Date:

Friday, November 14, 2014

  Actual Average Record
Temperature  
Mean Temperature 39 °F -  
Max Temperature 48 °F 69 °F 84 °F (1993)
Min Temperature 30 °F 43 °F 25 °F (1968)
Degree Days  
Heating Degree Days 26    
Moisture  
Dew Point 17 °F    
Average Humidity 45    
Maximum Humidity 64    
Minimum Humidity 23    
Precipitation  
Precipitation 0.00 in - - ()
Sea Level Pressure  
Sea Level Pressure 30.26 in    
Wind  
Wind Speed 9 mph (NNW)    
Max Wind Speed 14 mph    
Max Gust Speed 21 mph    
Visibility 10 miles    
Events      
Averages and records for this station are not official NWS values.
T = Trace of Precipitation, MM = Missing Value Source: NWS Daily Summary

Daily Weather History Graph

Daily Weather History Graph

Search for Another Location

Airport or City:

Trip Planner

Search our weather history database for the weather conditions in past years. The results will help you decide how hot, cold, wet, or windy it might be!

Date:

Astronomy

Nov. 14, 2014 Rise Set
Actual Time 6:13 AM CST 4:47 PM CST
Civil Twilight 5:48 AM CST 5:13 PM CST
Nautical Twilight 5:18 AM CST 5:42 PM CST
Astronomical Twilight 4:49 AM CST 6:11 PM CST
Moon 11:50 PM CST (11/14) 12:13 PM CST (11/14)
Length of Visible Light 11h 25m
Length of Day
10h 33m
Waning Gibbous, 49% of the Moon is Illuminated
Nov 14
Waning Gibbous
Nov 22
New
Nov 29
First Quarter
Dec 6
Full
Dec 14
Last Quarter

Hourly Weather History & Observations

Time (CST) Temp. Windchill Dew Point Humidity Pressure Visibility Wind Dir Wind Speed Gust Speed Precip Events Conditions
12:56 AM 36.0 °F 29.0 °F 23.0 °F 59% 30.22 in 10.0 mi NW 9.2 mph - N/A   Mostly Cloudy
2:56 AM 32.0 °F 24.2 °F 19.9 °F 61% 30.23 in 10.0 mi NNW 9.2 mph - N/A   Clear
3:56 AM 32.0 °F 24.8 °F 19.0 °F 59% 30.24 in 10.0 mi North 8.1 mph - N/A   Clear
4:56 AM 30.0 °F 22.4 °F 19.0 °F 64% 30.25 in 10.0 mi NNW 8.1 mph - N/A   Clear
5:56 AM 30.0 °F 20.5 °F 17.1 °F 59% 30.25 in 10.0 mi North 11.5 mph - N/A   Clear
6:56 AM 30.0 °F 21.1 °F 17.1 °F 59% 30.27 in 10.0 mi North 10.4 mph - N/A   Clear
7:56 AM 33.1 °F 24.9 °F 17.1 °F 52% 30.28 in 10.0 mi North 10.4 mph - N/A   Clear
8:56 AM 35.1 °F 27.9 °F 16.0 °F 46% 30.30 in 10.0 mi NNE 9.2 mph - N/A   Clear
9:56 AM 39.0 °F 32.3 °F 14.0 °F 36% 30.31 in 10.0 mi North 10.4 mph 19.6 mph N/A   Clear
10:56 AM 42.1 °F 35.7 °F 15.1 °F 34% 30.29 in 10.0 mi NW 11.5 mph 16.1 mph N/A   Clear
11:56 AM 45.0 °F 39.3 °F 12.9 °F 27% 30.26 in 10.0 mi NNW 11.5 mph 20.7 mph N/A   Clear
12:56 PM 46.9 °F - 10.9 °F 23% 30.23 in 10.0 mi NNW 9.2 mph - N/A   Clear
1:56 PM 46.9 °F - 10.9 °F 23% 30.22 in 10.0 mi NNW 13.8 mph 18.4 mph N/A   Clear
2:56 PM 48.0 °F - 12.9 °F 24% 30.23 in 10.0 mi NW 9.2 mph - N/A   Clear
3:56 PM 46.0 °F 40.2 °F 14.0 °F 28% 30.24 in 10.0 mi North 12.7 mph - N/A   Clear
4:56 PM 42.1 °F 39.2 °F 16.0 °F 35% 30.24 in 7.0 mi North 4.6 mph - N/A   Clear
5:56 PM 39.0 °F 35.7 °F 17.1 °F 41% 30.26 in 7.0 mi NNW 4.6 mph - N/A   Clear
6:56 PM 37.9 °F 34.4 °F 17.1 °F 43% 30.28 in 10.0 mi NNW 4.6 mph - N/A   Clear
7:56 PM 36.0 °F 33.3 °F 18.0 °F 48% 30.28 in 10.0 mi North 3.5 mph - N/A   Clear
8:56 PM 34.0 °F 29.8 °F 19.0 °F 54% 30.28 in 10.0 mi North 4.6 mph - N/A   Clear
9:56 PM 33.1 °F 30.0 °F 19.0 °F 56% 30.27 in 10.0 mi North 3.5 mph - N/A   Clear
10:56 PM 32.0 °F 28.7 °F 19.9 °F 61% 30.28 in 10.0 mi North 3.5 mph - N/A   Clear